Location: Greene
(44.1583°N, 70.1456°W)
Time: 15:22:37
(UTC-05:00)

N. Korean satellite - Visible Passes

Search period start: 18 February 2018 00:00
Search period end: 28 February 2018 00:00
Orbit: 459 x 514 km, 97.2° (Epoch: 17 February)

Date Brightness Start Highest point End Pass type
(mag) Time Alt. Az. Time Alt. Az. Time Alt. Az.
18 Feb 9.8 18:27:04 10° SW 18:29:26 17° W 18:31:50 10° NW visible
19 Feb 8.9 05:51:23 10° NNE 05:54:40 31° E 05:57:59 10° SSE visible
19 Feb 8.5 18:02:24 10° SSW 18:05:33 33° W 18:08:45 10° NNW visible
20 Feb 10.0 05:28:22 10° NE 05:30:48 17° E 05:33:16 10° SE visible
22 Feb 9.8 18:25:29 10° SW 18:27:56 18° W 18:30:25 10° NW visible
23 Feb 9.0 05:49:54 10° NNE 05:53:12 30° E 05:56:31 10° SSE visible
23 Feb 8.4 18:00:51 10° SSW 18:04:03 35° W 18:07:18 10° NNW visible
24 Feb 10.1 05:26:53 10° NE 05:29:19 17° E 05:31:45 10° SE visible
26 Feb 9.7 18:23:51 10° SW 18:26:23 19° W 18:28:57 10° NW visible
27 Feb 9.1 05:48:22 10° NNE 05:51:41 30° E 05:55:00 10° SSE visible
27 Feb 8.4 17:59:15 10° SSW 18:02:29 36° W 18:05:47 10° NNW visible
